Weather History for Punta Gorda, FL

Change the Weather History Date:

Tuesday, May 12, 2009

  Actual Average Record
Temperature  
Mean Temperature 78 °F -  
Max Temperature 93 °F 86 °F 97 °F (2011)
Min Temperature 64 °F 63 °F 54 °F (2001)
Cooling Degree Days 12    
Growing Degree Days 28 (Base 50)    
Moisture  
Dew Point 65 °F    
Average Humidity 69    
Maximum Humidity 93    
Minimum Humidity 38    
Precipitation  
Precipitation 0.00 in - - ()
Sea Level Pressure  
Sea Level Pressure 30.03 in    
Wind  
Wind Speed 7 mph (NNE)    
Max Wind Speed 23 mph    
Max Gust Speed 31 mph    
Visibility 10 miles    
Events Rain , Thunderstorm    
Averages and records for this station are not official NWS values.
T = Trace of Precipitation, MM = Missing Value Source: NWS Daily Summary

Daily Weather History Graph

Daily Weather History Graph

Search for Another Location

Airport:

Trip Planner

Search our weather history database for the weather conditions in past years. The results will help you decide how hot, cold, wet, or windy it might be!

Date:

Astronomy

May. 12, 2009 Rise Set
Actual Time 6:41 AM EDT 8:07 PM EDT
Civil Twilight 6:16 AM EDT 8:32 PM EDT
Nautical Twilight 5:46 AM EDT 9:02 PM EDT
Astronomical Twilight 5:15 AM EDT 9:33 PM EDT
Moon 11:31 PM EDT (5/12) 9:08 AM EDT (5/12)
Length of Visible Light 14h 15m
Length of Day
13h 25m
Waning Gibbous, 89% of the Moon is Illuminated
May 12
Waning Gibbous
May 17
Last Quarter
May 24
New
May 30
First Quarter
Jun 7
Full

Hourly Weather History & Observations

Time (EDT) Temp. Heat Index Dew Point Humidity Pressure Visibility Wind Dir Wind Speed Gust Speed Precip Events Conditions
1:53 AM 71.1 °F - 64.0 °F 78% 30.04 in 10.0 mi North 3.5 mph - N/A   Clear
2:53 AM 71.1 °F - 64.9 °F 81% 30.02 in 10.0 mi NNW 4.6 mph - N/A   Clear
3:53 AM 68.0 °F - 64.0 °F 87% 30.00 in 10.0 mi Calm Calm - N/A   Clear
4:53 AM 64.9 °F - 63.0 °F 93% 30.00 in 10.0 mi South 3.5 mph - N/A   Clear
5:53 AM 64.9 °F - 62.1 °F 90% 30.01 in 10.0 mi Calm Calm - N/A   Clear
6:53 AM 64.9 °F - 61.0 °F 87% 30.02 in 10.0 mi Calm Calm - N/A   Clear
8:53 AM 79.0 °F - 69.1 °F 72% 30.05 in 10.0 mi NNW 4.6 mph - N/A   Clear
9:53 AM 82.0 °F 84.5 °F 66.9 °F 60% 30.06 in 10.0 mi Variable 6.9 mph - N/A   Clear
10:53 AM 84.0 °F 85.4 °F 64.0 °F 51% 30.06 in 10.0 mi Calm Calm - N/A   Clear
11:53 AM 88.0 °F 89.6 °F 64.9 °F 46% 30.06 in 10.0 mi Variable 3.5 mph - N/A   Clear
12:53 PM 90.0 °F 90.6 °F 63.0 °F 40% 30.05 in 10.0 mi Variable 4.6 mph - N/A   Clear
1:53 PM 91.9 °F 93.3 °F 64.0 °F 39% 30.03 in 10.0 mi NNW 6.9 mph - N/A   Clear
2:53 PM 91.9 °F 94.1 °F 64.9 °F 41% 30.00 in 10.0 mi WSW 11.5 mph 17.3 mph N/A   Clear
3:53 PM 91.0 °F 93.0 °F 64.9 °F 42% 29.97 in 10.0 mi WSW 18.4 mph - N/A   Clear
4:53 PM 91.0 °F 91.5 °F 62.1 °F 38% 29.96 in 10.0 mi West 17.3 mph - N/A   Clear
5:53 PM 88.0 °F 89.3 °F 64.0 °F 45% 29.95 in 10.0 mi West 17.3 mph - N/A   Clear
6:53 PM 80.1 °F 82.3 °F 66.9 °F 64% 30.04 in 10.0 mi NE 23.0 mph 31.1 mph N/A Thunderstorm Overcast
7:01 PM 78.8 °F - 68.0 °F 69% 30.05 in 10.0 mi NE 19.6 mph 29.9 mph N/A Thunderstorm Overcast
7:53 PM 72.0 °F - 66.0 °F 81% 30.07 in 10.0 mi ENE 13.8 mph 21.9 mph 0.00 in   Overcast
8:31 PM 69.8 °F - 66.2 °F 88% 30.06 in 10.0 mi East 12.7 mph 21.9 mph 0.00 in Rain , Thunderstorm Light Rain
8:39 PM 69.8 °F - 66.2 °F 88% 30.06 in 10.0 mi ENE 12.7 mph - 0.00 in Rain Light Rain
8:53 PM 70.0 °F - 64.9 °F 84% 30.06 in 10.0 mi ENE 17.3 mph - 0.00 in Rain Light Rain
9:53 PM 70.0 °F - 66.9 °F 90% 30.06 in 10.0 mi East 8.1 mph - 0.00 in   Mostly Cloudy
10:53 PM 70.0 °F - 66.9 °F 90% 30.05 in 10.0 mi East 5.8 mph - N/A   Partly Cloudy
11:53 PM 69.1 °F - 66.9 °F 93% 30.05 in 10.0 mi ESE 4.6 mph - N/A   Clear